Home > Weather > Gary > Past weeks

Flag for USA Weather for the Past 2 Weeks in Gary, Indiana, USA

Now
39 °F

Fog.


Feels Like: 39 °F
Forecast: 40 / 72 °F
Wind: No wind

Location: Lansing Municipal Airport

Current Time: May 6, 2016 at 3:08:35 AM

Latest Report: May 6, 2016 at 2:15 AM


Visibility: 3 mi

Pressure: 29.99 "Hg

Humidity: 96%

Dew Point: 38 °F

Location of GaryLocation

Historic Weather in Gary — Graph

°F

Gary Temperature Yesterday

Maximum temperature yesterday: 55 °F (at 4:15 PM)
Minimum temperature yesterday: 41 °F (at 2:55 AM)
Average temperature yesterday: 47 °F

High & Low Weather Summary for the Past Weeks

 TemperatureHumidityPressure
High82 °F (Apr 25, 3:55 PM)100% (Apr 21, 6:15 AM)30.21 "Hg (Apr 21, 6:15 AM)
Low37 °F (May 3, 6:15 AM)36% (May 3, 11:55 AM)29.61 "Hg (May 4, 3:55 AM)
Average51 °F77%29.94 "Hg
* Reported Apr 21 1:15 AM — May 6 1:55 AM, Gary, Weather by CustomWeather, © 2016

Note: Actual official high and low records may vary slightly from our data, if they occured in-between our weather recording intervals... More about our weather records

Advertising

Gary Weather History for the Previous 24 Hours

Scroll right to see more
 ConditionsComfort  
Time TempWeatherWind HumidityBarometerVisibility
1:55 AM
Fri, May 6
40 °FClear.No wind95%29.99 "Hg7 mi
1:15 AM39 °FClear.No wind93%29.99 "Hg10 mi
12:55 AM41 °FClear.No wind93%29.99 "Hg10 mi
12:35 AM42 °FClear.No wind92%29.99 "Hg10 mi
12:15 AM43 °FClear.No wind90%29.99 "Hg10 mi
11:55 PM
Thu, May 5
43 °FClear.No wind90%29.99 "Hg10 mi
11:15 PM43 °FClear.No wind90%29.99 "Hg10 mi
10:55 PM44 °FClear.No wind89%29.99 "Hg10 mi
10:15 PM46 °FClear.No wind82%30.00 "Hg10 mi
9:55 PM47 °FClear.No wind78%30.00 "Hg10 mi
9:35 PM48 °FClear.No wind75%29.99 "Hg10 mi
9:15 PM49 °FClear.No wind71%29.99 "Hg10 mi
8:55 PM49 °FClear.No wind69%29.98 "Hg10 mi
8:15 PM49 °FClear.3 mph68%29.98 "Hg10 mi
7:55 PM51 °FClear.3 mph64%29.98 "Hg10 mi
7:15 PM52 °FSunny.5 mph62%29.98 "Hg10 mi
6:55 PM53 °FSunny.6 mph61%29.98 "Hg10 mi
6:35 PM54 °FSunny.6 mph61%29.98 "Hg10 mi
6:15 PM54 °FSunny.3 mph60%29.99 "Hg10 mi
5:55 PM54 °FSunny.6 mph60%29.98 "Hg10 mi
5:35 PM55 °FSunny.6 mph60%29.99 "Hg10 mi
5:15 PM54 °FSunny.8 mph61%29.99 "Hg10 mi
4:55 PM54 °FSunny.9 mph58%29.99 "Hg10 mi
4:35 PM54 °FSunny.12 mph59%29.99 "Hg10 mi
4:15 PM55 °FSunny.10 mph59%30.00 "Hg10 mi
3:55 PM54 °FSunny.8 mph61%30.00 "Hg10 mi
3:15 PM53 °FSunny.12 mph66%30.01 "Hg10 mi
2:55 PM53 °FSunny.14 mph67%30.01 "Hg10 mi
2:15 PM51 °FSunny.13 mph71%30.02 "Hg10 mi
1:55 PM51 °FSunny.14 mph72%30.01 "Hg10 mi
1:35 PM51 °FSunny.14 mph71%30.01 "Hg10 mi
1:15 PM51 °FSunny.13 mph72%30.01 "Hg10 mi
12:55 PM50 °FSunny.14 mph74%30.01 "Hg10 mi
12:15 PM49 °FSunny.13 mph74%30.02 "Hg10 mi
11:55 AM48 °FSunny.13 mph74%30.02 "Hg10 mi
11:15 AM48 °FScattered clouds.16 mph75%30.01 "Hg10 mi
10:55 AM47 °FScattered clouds.16 mph75%30.01 "Hg10 mi
10:35 AM47 °FSunny.16 mph75%30.01 "Hg10 mi
10:15 AM47 °FScattered clouds.15 mph75%30.00 "Hg10 mi
9:55 AM47 °FPartly sunny.13 mph76%30.00 "Hg10 mi
9:15 AM45 °FOvercast.16 mph78%29.99 "Hg10 mi
8:55 AM44 °FOvercast.18 mph79%29.99 "Hg10 mi
8:15 AM43 °FOvercast.13 mph81%29.97 "Hg10 mi
7:55 AM42 °FOvercast.15 mph81%29.96 "Hg10 mi
7:15 AM42 °FOvercast.14 mph81%29.95 "Hg10 mi
6:55 AM42 °FOvercast.15 mph82%29.94 "Hg10 mi
6:35 AM41 °FOvercast.10 mph82%29.93 "Hg10 mi
6:15 AM41 °FOvercast.10 mph83%29.92 "Hg10 mi
5:55 AM41 °FOvercast.13 mph82%29.91 "Hg10 mi
5:35 AM41 °FOvercast.14 mph82%29.90 "Hg10 mi
5:15 AM41 °FOvercast.15 mph81%29.89 "Hg10 mi
4:55 AM41 °FOvercast.15 mph81%29.89 "Hg10 mi
4:15 AM41 °FOvercast.14 mph81%29.87 "Hg10 mi
3:55 AM41 °FOvercast.14 mph81%29.87 "Hg10 mi
3:35 AM41 °FOvercast.17 mph81%29.87 "Hg10 mi
3:15 AM41 °FDrizzle. Overcast.16 mph82%29.87 "Hg10 mi
Weather by CustomWeather, © 2016

See weather overviewHow to use our weather pages